www.pogodaiklimat.ru

Погода и климат >> Архив погоды >> Португалия >> Porto


АРХИВ ПОГОДЫ в Porto

Время (UTC), дата Ветер
(напр.,м/с)
 
Видим.   Явления Облачность Т
(С)
Тd
(С)
f
(%)
Тe
(С)
Тes
(С)
Комфортность P
(гПа)
Po
(гПа)
Тmin
(С)
Tmax
(С)
R
(мм)
R24
(мм)
S
(см)
13 14.10 СЗ 6 н/о н/о +15.9 +10.5 70 +15 +15 прохладно 1015.1 1007.0
14 14.10 СЗ 7 н/о н/о +16.4 +10.1 66 +15 +15 прохладно 1015.2 1007.0
15 14.10 СЗ 7 15 км 8/3 750 м
[Cu med, cong Ac trans]
+16.1 +9.1 63 +15 +15 прохладно 1014.9 1006.7
16 14.10 СЗ 4 н/о н/о +16.7 +10.2 65 +16 +16 по сезону 1014.8 1006.6
17 14.10 З 2 н/о н/о +15.1 +9.7 70 +15 +15 по сезону 1014.7 1006.5
18 14.10 З 2 н/о н/о +14.9 +9.9 72 +15 +15 по сезону 1014.7 1006.5 +19.8
19 14.10 З 1 н/о н/о +14.2 +9.3 72 +15 +15 по сезону 1014.7 1006.6
20 14.10 ЮЗ 1 н/о н/о +13.1 +9.5 79 +13 +13 по сезону 1014.7 1006.4
21 14.10 Ю 2 н/о н/о +13.4 +9.2 76 +13 +13 по сезону 1014.7 1006.4 0.4
22 14.10 Ю 3 н/о н/о +14.6 +8.9 69 +14 +14 по сезону 1014.2 1006.0
23 14.10 Ю 4 н/о н/о +14.3 +8.9 70 +13 +13 по сезону 1013.1 1005.0
00 15.10 Ю 6 н/о н/о +14.1 +8.7 70 +12 +12 по сезону 1012.0 1003.9
01 15.10 Ю 7 н/о н/о +13.6 +9.4 76 +11 +11 по сезону 1011.2 1002.9
02 15.10 Ю 7 н/о н/о +12.5 +10.3 86 +10 +10 прохладно 1009.4 1001.3 0.2
03 15.10 Ю 8 5000 м дождь {морось} 10/10 180 м
[Frnb]
+12.7 +11.2 91 +10 +10 прохладно 1007.3 999.3
04 15.10 Ю 9 н/о н/о +13.3 +11.9 91 +10 +10 по сезону 1005.9 997.7 2
05 15.10 Ю 8 н/о н/о +13.6 +12.3 92 +11 +11 по сезону 1005.0 997.0 3
06 15.10 ЮЗ 6 н/о н/о +13.9 +13.0 94 +12 +12 по сезону 1005.5 997.4 +12.4 11
08 15.10 ЮЗ 2 н/о н/о +14.7 +13.8 94 +14 +14 по сезону 1005.8 997.6 0.4
09 15.10 ЮЗ 3 н/о н/о +15.1 +14.1 94 +14 +14 по сезону 1005.8 997.6 0.2
10 15.10 Ю 3 н/о н/о +15.2 +14.4 95 +14 +14 холодно 1005.8 997.8 2
11 15.10 Ю 3 н/о н/о +15.6 +14.8 95 +15 +15 прохладно 1006.1 997.9 0.4
12 15.10 Ю 4 5000 м слабая морось {ливн. осадки, дождь} 10/10 90 м
[Cu Sc]
+16.1 +15.4 96 +15 +15 прохладно 1006.1 998.0 4
14 15.10 Ю 4 н/о н/о +16.6 +15.7 94 +16 +16 по сезону 1006.2 998.0
13 15.10 Ю 3 н/о н/о +16.5 +15.8 96 +16 +16 по сезону 1006.2 998.1 0.1
15 15.10 Ю 3 7000 м дымка {ливн. осадки, морось} 9/6 150 м
[St Ac trans Ci sp]
+16.8 +15.7 93 +17 +18 по сезону 1006.7 998.5
16 15.10 Ю 3 н/о н/о +17.2 +14.9 86 +17 +17 по сезону 1007.2 999.0 0.1
17 15.10 Ю 3 н/о н/о +16.6 +14.8 89 +16 +16 по сезону 1008.0 999.8
18 15.10 Ю 2 9000 м дымка {морось} 10/10 180 м
[St]
+16.4 +14.8 90 +16 +16 по сезону 1008.5 1000.4 +18.0
20 15.10 ЮВ 1 н/о н/о +16.1 +14.6 91 +17 +17 тепло 1002.1
19 15.10 Ю 2 н/о н/о +16.1 +14.6 91 +16 +16 по сезону 1009.3 1001.1
21 15.10 ЮЗ 1 н/о н/о +16.2 +14.6 90 +17 +17 тепло 1011.1 1002.9 3
22 15.10 З 1 н/о н/о +16.3 +14.7 90 +17 +17 тепло 1011.8 1003.5
23 15.10 С 1 н/о н/о +16.0 +14.6 91 +17 +17 тепло 1011.9 1003.7
00 16.10 С 2 н/о н/о +16.3 +14.9 91 +16 +16 тепло 1012.4 1004.1
02 16.10 С 2 н/о н/о +16.0 +15.0 94 +16 +16 тепло 1013.1 1004.9
01 16.10 С 2 н/о н/о +16.2 +14.9 92 +16 +16 тепло 1012.8 1004.5
03 16.10 С 1 н/о н/о +15.9 +14.9 94 +17 +17 тепло 1013.0 1004.8
04 16.10 В 2 н/о н/о +15.9 +14.8 93 +16 +16 тепло 1013.3 1005.0
05 16.10 В 2 н/о н/о +16.3 +15.0 92 +16 +16 тепло 1013.9 1005.6 0.1
06 16.10 СВ 1 н/о н/о +16.4 +14.7 90 +17 +17 тепло 1014.6 1006.3 +15.7
08 16.10 В 1 н/о н/о +16.8 +14.9 89 +18 +18 тепло 1015.9 1007.7
07 16.10 С 1 н/о н/о +16.0 +14.4 90 +17 +17 тепло 1015.1 1006.9
09 16.10 СЗ 2 3000 м дымка 9/3 60 м
[St Ac trans Ci sp]
+17.3 +14.6 84 +18 +19 тепло 1016.8 1008.5
10 16.10 СЗ 1 н/о н/о +18.7 +14.2 75 +21 +21 комфорт 1017.2 1009.1
11 16.10 З 3 н/о н/о +19.2 +14.5 74 +21 +21 комфорт 1017.5 1009.3
12 16.10 З 3 9000 м 4/4 750 м
[Cu Sc]
+19.0 +13.9 72 +20 +24 тепло 1017.7 1009.5
14 16.10 СЗ 5 н/о н/о +19.9 +14.2 70 +22 +22 комфорт 1017.5 1009.4
13 16.10 СЗ 5 н/о н/о +19.4 +13.9 70 +21 +21 комфорт 1017.5 1009.5
15 16.10 СЗ 5 18 км ясно +19.5 +13.5 68 +21 +23 комфорт 1017.7 1009.6
16 16.10 СЗ 6 н/о н/о +18.0 +12.7 71 +17 +17 по сезону 1017.8 1009.6
17 16.10 СЗ 5 н/о н/о +16.7 +12.9 78 +16 +16 по сезону 1018.0 1009.8
18 16.10 СЗ 4 н/о н/о +15.7 +13.2 85 +15 +15 по сезону 1018.5 1010.3 +20.1
20 16.10 С 2 н/о н/о +14.6 +12.6 88 +14 +14 по сезону 1019.3 1010.9
19 16.10 С 2 н/о н/о +14.9 +12.8 87 +15 +15 по сезону 1019.1 1010.8
21 16.10 С 1 6000 м туман на расстоянии 4/4 60 м
[St]
+14.3 +12.7 90 +15 +15 по сезону 1019.6 1011.3
22 16.10 С 2 н/о н/о +15.3 +13.7 90 +15 +15 тепло 1019.8 1011.5
23 16.10 С 1 н/о н/о +15.2 +13.7 91 +16 +16 тепло 1019.7 1011.5
00 17.10 З 1 6000 м дымка 10/10 120 м
[St]
+15.0 +13.5 91 +15 +15 по сезону 1019.5 1011.2
02 17.10 ЮВ 1 н/о н/о +14.5 +13.2 92 +15 +15 тепло 1019.1 1010.9
01 17.10 ЮВ 1 н/о н/о +14.8 +13.3 91 +15 +15 тепло 1019.4 1011.1
03 17.10 ЮВ 2 6000 м дымка 10/10 90 м
[St]
+14.2 +13.0 92 +14 +14 по сезону 1018.9 1010.6
04 17.10 ЮВ 2 н/о н/о +14.0 +12.9 93 +13 +13 тепло 1018.8 1010.5
05 17.10 В 2 н/о н/о +13.8 +12.7 93 +13 +13 по сезону 1019.1 1010.8
06 17.10 В 3 5000 м дымка 10/10 210 м
[St]
+13.5 +12.5 94 +12 +12 по сезону 1019.0 1010.7 +13.5
08 17.10 ЮВ 2 н/о н/о +14.3 +13.1 92 +14 +14 по сезону 1018.8 1010.5
07 17.10 В 3 н/о н/о +13.6 +12.6 94 +12 +12 прохладно 1018.8 1010.6
09 17.10 ЮВ 2 8000 м дымка 5/5 360 м
[Cu Sc]
+16.4 +13.0 80 +17 +18 тепло 1018.5 1010.3
10 17.10 Ю 3 н/о н/о +17.0 +12.4 74 +17 +17 по сезону 1018.1 1010.0
11 17.10 Ю 3 н/о н/о +17.3 +12.6 74 +17 +17 по сезону 1018.2 1009.8
12 17.10 Ю 4 12 км 9/8 330 м
[Cu Sc Ac trans]
+17.4 +13.1 76 +17 +18 по сезону 1017.3 1009.2
14 17.10 ЮЗ 4 н/о н/о +15.1 +13.3 89 +14 +14 прохладно 1015.7 1007.5 2
13 17.10 Ю 4 н/о н/о +16.9 +13.1 78 +16 +16 по сезону 1016.5 1008.3
15 17.10 Ю 3 н/о н/о +15.0 +14.1 94 +14 +14 прохладно 1015.2 1007.0 8
16 17.10 СЗ 4 н/о н/о +15.0 +14.1 94 +14 +14 по сезону 1014.4 1006.2 0.9
17 17.10 СЗ 6 н/о н/о +14.8 +13.1 90 +13 +13 прохладно 1014.1 1005.9
18 17.10 СЗ 9 н/о н/о +14.7 +12.1 84 +12 +12 прохладно 1014.0 1005.8 +17.8
20 17.10 СЗ 7 н/о н/о +14.4 +12.1 86 +12 +12 по сезону 1014.3 1006.1
19 17.10 СЗ 9 н/о н/о +14.7 +12.1 84 +12 +12 прохладно 1014.1 1005.9
21 17.10 СЗ 8 н/о н/о +14.4 +12.1 86 +12 +12 прохладно 1014.2 1006.0 10
22 17.10 СЗ 7 н/о н/о +14.4 +11.6 83 +12 +12 по сезону 1013.7 1005.5
23 17.10 СЗ 5 н/о н/о +14.2 +12.0 87 +12 +12 по сезону 1013.2 1005.0
00 18.10 С 2 15 км 9/6 360 м
[Cu Sc Ac trans]
+13.7 +11.8 88 +13 +13 по сезону 1012.6 1004.4
02 18.10 СЗ 3 н/о н/о +13.6 +12.1 91 +12 +12 по сезону 1011.8 1003.6
01 18.10 С 2 н/о н/о +13.6 +12.0 90 +13 +13 по сезону 1012.3 1004.2
03 18.10 С 3 н/о н/о +13.2 +11.7 91 +12 +12 по сезону 1011.3 1003.1
04 18.10 С 2 н/о н/о +12.5 +11.2 92 +12 +12 по сезону 1011.2 1002.9
05 18.10 С 2 н/о н/о +12.2 +11.1 93 +11 +11 по сезону 1011.5 1003.2
06 18.10 СВ 4 12 км 3/0
[Ac trans Ci sp]
+13.4 +12.0 91 +12 +12 по сезону 1011.5 1003.4 +12.1
08 18.10 СВ 2 н/о н/о +14.4 +12.0 85 +14 +14 по сезону 1012.4 1004.1
07 18.10 С 3 н/о н/о +12.7 +10.9 89 +11 +11 прохладно 1011.8 1003.4
09 18.10 С 3 15 км 6/6 900 м
[Sc Ac trans Ci sp]
+16.1 +12.4 79 +16 +16 по сезону 1012.6 1004.5
10 18.10 С 5 н/о н/о +17.9 +12.6 71 +18 +18 по сезону 1012.7 1004.6
11 18.10 С 5 н/о н/о +19.7 +12.8 64 +21 +21 комфорт 1012.9 1004.8
12 18.10 С 5 15 км 4/0
[Ci sp]
+21.4 +13.0 59 +24 +28 комфорт 1012.8 1004.8
14 18.10 С 5 н/о н/о +23.7 +12.6 50 +26 +26 жарко 1011.6 1003.7
13 18.10 С 5 н/о н/о +22.7 +12.8 54 +26 +26 жарко 1012.3 1004.3
15 18.10 С 5 25 км 4/4 750 м
[Cu med, cong Ac trans Ci sp]
+23.7 +13.2 52 +26 +27 жарко 1011.3 1003.3
16 18.10 С 5 н/о н/о +23.9 +12.7 49 +26 +26 жарко 1011.1 1003.3
17 18.10 С 5 н/о н/о +22.5 +12.8 54 +25 +25 комфорт 1011.2 1003.2
18 18.10 С 5 20 км 3/1 1500 м
[Sc diur, vesp Ac trans Ci fib]
+20.5 +12.8 61 +23 +23 комфорт 1011.6 1003.6 +24.2
20 18.10 С 3 н/о н/о +18.0 +12.0 68 +18 +18 тепло 1013.2 1005.0
19 18.10 С 5 н/о н/о +19.5 +12.3 63 +21 +21 комфорт 1012.5 1004.3
21 18.10 С 3 15 км ясно +17.4 +11.6 69 +17 +17 тепло 1013.7 1005.6
22 18.10 С 3 н/о н/о +16.0 +11.4 74 +16 +16 тепло 1014.2 1006.0
23 18.10 С 3 н/о н/о +15.4 +11.0 75 +15 +15 тепло 1014.4 1006.2
00 19.10 С 4 15 км 3/0
[Ci sp]
+14.8 +11.3 80 +14 +14 по сезону 1014.3 1006.0
02 19.10 С 3 н/о н/о +14.0 +10.6 80 +13 +13 по сезону 1014.0 1005.8
01 19.10 С 4 н/о н/о +15.3 +11.7 79 +14 +14 тепло 1014.2 1006.1
03 19.10 С 4 15 км 3/0
[Ci sp]
+14.8 +11.0 78 +14 +14 по сезону 1013.7 1005.5
04 19.10 С 1 н/о н/о +14.1 +10.5 79 +14 +14 тепло 1013.5 1005.4
05 19.10 СВ 6 н/о н/о +16.3 +10.3 68 +15 +15 тепло 1013.2 1005.1
06 19.10 С 3 15 км 1/0
[Ci sp]
+15.0 +9.9 72 +14 +14 по сезону 1013.3 1005.1 +13.9
08 19.10 С 4 н/о н/о +16.5 +10.6 68 +16 +16 по сезону 1014.8 1006.5
07 19.10 С 4 н/о н/о +14.5 +10.1 75 +13 +13 по сезону 1014.0 1005.8
09 19.10 СВ 3 25 км 1/0
[Ac lent]
+19.1 +10.6 58 +20 +22 тепло 1015.1 1006.9
10 19.10 СЗ 3 н/о н/о +20.6 +11.4 56 +23 +23 комфорт 1015.3 1007.2
11 19.10 С 3 н/о н/о +23.1 +11.1 47 +25 +25 комфорт 1015.0 1007.0
12 19.10 СЗ 5 н/о н/о +23.6 +12.1 48 +25 +25 комфорт 1014.3 1006.4
14 19.10 СЗ 5 н/о н/о +24.6 +12.8 48 +27 +27 жарко 1013.6 1005.6
13 19.10 СВ 5 н/о н/о +26.2 +8.8 33 +26 +26 жарко 1013.7 1005.9
15 19.10 СЗ 4 н/о н/о +24.1 +12.3 48 +26 +26 жарко 1013.6 1005.7
16 19.10 СЗ 4 н/о н/о +24.0 +13.3 51 +26 +26 жарко 1013.5 1005.5
17 19.10 СЗ 3 н/о н/о +22.4 +13.5 57 +25 +25 комфорт 1013.8 1005.8
18 19.10 С 2 н/о н/о +20.5 +13.4 64 +23 +23 комфорт 1014.4 1006.3 +26.6
20 19.10 С 5 н/о н/о +20.7 +13.0 61 +23 +23 комфорт 1015.1 1006.9
19 19.10 С 4 н/о н/о +21.7 +13.4 59 +24 +24 комфорт 1014.6 1006.6
21 19.10 СВ 6 н/о н/о +22.0 +12.1 53 +24 +24 комфорт 1015.5 1007.5
22 19.10 СВ 6 н/о н/о +22.2 +11.2 50 +24 +24 комфорт 1015.9 1008.0
23 19.10 СВ 4 н/о н/о +21.0 +10.9 52 +23 +23 комфорт 1016.2 1008.1
00 20.10 СВ 7 н/о н/о +22.0 +9.7 46 +24 +24 комфорт 1016.1 1008.0
02 20.10 СВ 5 н/о н/о +19.4 +10.1 55 +20 +20 тепло 1016.7 1008.7
01 20.10 СВ 4 н/о н/о +19.9 +10.1 53 +21 +21 комфорт 1016.7 1008.6
03 20.10 СВ 4 25 км ясно +19.6 +9.1 51 +21 +21 комфорт 1016.1 1008.0
04 20.10 СВ 5 н/о н/о +19.8 +6.4 42 +20 +20 тепло 1016.0 1007.9
05 20.10 СВ 5 н/о н/о +19.8 +6.1 41 +20 +20 тепло 1016.6 1008.4
06 20.10 В 5 30 км 1/0
[Ac lent]
+19.4 +6.3 42 +20 +20 тепло 1017.0 1008.9 +18.9
08 20.10 СВ 4 н/о н/о +19.8 +7.9 46 +21 +21 комфорт 1018.5 1010.3
07 20.10 В 4 н/о н/о +18.4 +7.3 48 +19 +19 тепло 1017.5 1009.4
09 20.10 В 3 н/о н/о +20.9 +9.3 47 +23 +23 комфорт 1019.0 1010.8
10 20.10 В 5 н/о н/о +20.3 +9.3 49 +22 +22 комфорт 1019.1 1011.0
11 20.10 В 7 н/о н/о +22.6 +9.8 44 +24 +24 комфорт 1018.8 1010.8
12 20.10 В 3 25 км 3/0
[Ac lent]
+22.9 +10.1 44 +25 +29 комфорт 1018.0 1010.1
14 20.10 В 6 н/о н/о +25.2 +9.6 37 +26 +26 жарко 1017.0 1009.0
13 20.10 СВ 6 н/о н/о +25.5 +10.7 39 +26 +26 жарко 1017.2 1009.2
15 20.10 В 6 30 км 4/0
[Ac lent]
+25.9 +10.3 37 +27 +28 жарко 1015.9 1008.2
16 20.10 В 5 н/о н/о +25.7 +9.6 36 +26 +26 жарко 1016.0 1008.0
17 20.10 СВ 5 н/о н/о +24.8 +10.0 39 +26 +26 жарко 1015.8 1007.8
18 20.10 СВ 3 20 км 3/0
[Ac lent]
+23.4 +10.3 44 +25 +25 комфорт 1016.1 1008.1 +26.5
20 20.10 СВ 4 н/о н/о +22.7 +9.6 43 +24 +24 комфорт 1016.5 1008.5
19 20.10 СВ 3 н/о н/о +22.6 +10.5 46 +24 +24 комфорт 1016.6 1008.5
21 20.10 В 4 н/о н/о +22.5 +9.5 44 +24 +24 комфорт 1017.0 1008.8
22 20.10 С 2 н/о н/о +20.0 +10.2 53 +22 +22 комфорт 1017.4 1009.3
23 20.10 ЮЗ 2 н/о н/о +19.9 +11.7 59 +22 +22 комфорт 1017.9 1009.9
00 21.10 В 2 н/о н/о +19.0 +11.9 63 +20 +20 тепло 1018.2 1010.0
02 21.10 В 3 н/о н/о +20.3 +10.3 53 +22 +22 комфорт 1018.1 1010.0
01 21.10 СВ 1 н/о н/о +18.7 +12.2 66 +21 +21 комфорт 1017.9 1009.9
03 21.10 В 3 н/о н/о +20.0 +10.1 53 +22 +22 комфорт 1017.7 1009.7
04 21.10 В 2 н/о н/о +19.7 +11.0 57 +22 +22 комфорт 1017.8 1009.7
05 21.10 СЗ 2 н/о н/о +18.5 +11.6 64 +20 +20 тепло 1018.0 1009.8
06 21.10 С 3 н/о н/о +18.9 +11.8 63 +20 +20 тепло 1018.1 1010.0 +17.1
08 21.10 СВ 3 н/о н/о +20.8 +11.9 57 +23 +23 комфорт 1018.9 1010.8
07 21.10 СВ 2 н/о н/о +19.4 +11.5 60 +21 +21 комфорт 1018.3 1010.1
09 21.10 В 4 30 км 8/0
[Ac lent Ci sp]
+21.2 +11.6 54 +23 +24 комфорт 1019.2 1011.0
10 21.10 В 4 н/о н/о +23.1 +11.8 49 +26 +26 жарко 1018.9 1010.9
11 21.10 В 5 н/о н/о +23.8 +12.2 48 +26 +26 жарко 1018.7 1010.7

 

Местоположение метеостанции Porto (Португалия): широта 41.23 долгота -8.68 высота над уровнем моря 77 м.

В архиве по умолчанию представлена погода в Porto за последнюю неделю. Архивные данные за месяц целиком и за предыдущие месяцы, начиная с января 2011 года, Вы можете получить, выбрав интересующий диапазон дат из раскрывающегося списка и нажав кнопку "Ввод!".


*Определитесь, кто Вы:
робот инопланетянин человек

Внимание! Время в таблицах - всемирное. Для получения местного времени необходимо прибавить поправку, которая в Porto равна 0 ч.

Смотрите также архив погоды в соседних городах и на ближайших метеорологических станциях:

Погода в Ovar (Португалия) (35 км)
Погода в Viana Do Castelo (Португалия) (46 км)
Погода в Vila Real (Португалия) (80 км)
Погода в Viseu (Португалия) (88 км)
Погода в Vigo (Испания) (111 км)
Погода в Coimbra (Португалия) (121 км)
Погода в Penhas Douradas (Португалия) (131 км)
Погода в Pontevedra (Испания) (134 км)
Погода в Orense (Испания) (140 км)
Погода в Monte Real (Португалия) (157 км)

Пояснения к столбцам:

Ветер - указаны скорость ветра в м/с - средняя за 10 мин, порывы в срок и между сроками (в фигурных скобках) и направление, откуда дует ветер: С - северный, СВ - северо-восточный, В - восточный, ЮВ - юго-восточный, Ю - южный, ЮЗ - юго-западный, З - западный, СЗ - северо-западный.
Видимость - горизонтальная дальность видимости в метрах или километрах. При видимости от 1 до 10 км при отсутствии осадков обычно наблюдается дымка, при ухудшении видимости до 1 км и менее - туман. В сухую погоду видимость может ухудшаться дымом, пылью или мглою.
Явления - указаны атмосферные явления, наблюдавшиеся в срок или в последний час перед сроком; фигурными скобками обозначены явления, наблюдавшиеся между сроками (за 1-3 часа до срока); квадратными скобками обозначены град или гололедные отложения с указанием их диаметра в мм.
Облачность - указаны через наклонную черту общая и нижняя облачность в баллах и высота нижней границы облаков в метрах; квадратными скобками обозначены формы облаков: Ci - перистые, Cs - перисто-слоистые, Cc - перисто-кучевые, Ac - высококучевые, As - высокослоистые, Sc - слоисто-кучевые, Ns - слоисто-дождевые, Cu - кучевые, Cb - кучево-дождевые. Подробнее классификацию облаков см. в Атласе облаков (PDF).
T - Температура воздуха - температура, измеренная на высоте 2 м над землей.
Td - Температура точки росы - температура, при понижении до которой содержащийся в воздухе водяной пар достигнет насыщения.
f - Относительная влажность воздуха - влажноcть воздуха, измеренная на высоте 2 м над землей.
Te - Эффективная температура - температура, которую ощущает одетый по сезону человек в тени. Характеристика душности погоды. При расчете учитывается влияние влажности воздуха и скорости ветра на теплоощущения человека.
Tes - Эффективная температура на солнце - температура, которую ощущает человек, с поправкой на солнечный нагрев. Характеристика знойности погоды. Зависит от высоты солнца над горизонтом, облачности и скорости ветра. Ночью, в пасмурную погоду, а также при ветре 12 м/с и более поправка равна нулю.
P - Атмосферное давление - приведенное к уровню моря атмосферное давление.
Po - Атмосферное давление - измеренное на уровне метеостанции атмосферное давление.
Tmin - Минимальная температура - минимум температуры воздуха на высоте 2 м над землей.
Tmax - Максимальная температура - максимум температуры воздуха на высоте 2 м над землей.
R - Количество осадков - Количество выпавших осадков за период времени, мм. При наведении курсора мыши на число - период времени, за который выпало указанное количество осадков.
R24 - Количество осадков - Количество выпавших осадков за 24 часа, мм.
S - Снежный покров - Высота снежного покрова, см. При наведении курсора мыши на число - состояние снежного покрова и степень покрытия местности в баллах.